Coatesville, PA

11:02 PM EDT on May 25, 2017 (GMT -0400)
Chester County Carlson

Weather History for KMQS - January, 2013

Change the Weather History Date:

Wednesday, January 16, 2013

  Actual Average (KILG) Record (KILG)
Temperature  
Mean Temperature 34 °F -  
Max Temperature 37 °F 38 °F 69 °F (1932)
Min Temperature 32 °F 20 °F 1 °F (1977)
Degree Days  
Heating Degree Days 30    
Moisture  
Dew Point 34 °F    
Average Humidity 98    
Maximum Humidity 100    
Minimum Humidity 93    
Precipitation  
Precipitation 1.04 in - - ()
Sea Level Pressure  
Sea Level Pressure 29.99 in    
Wind  
Wind Speed 4 mph (NW)    
Max Wind Speed 14 mph    
Max Gust Speed 18 mph    
Visibility 3 miles    
Events Fog , Rain , Snow    
Averages and records for this station are not official NWS values.
T = Trace of Precipitation, MM = Missing Value Source: NWS Daily Summary

Daily Weather History Graph

Daily Weather History Graph

Search for Another Location

Airport or City:

Trip Planner

Search our weather history database for the weather conditions in past years. The results will help you decide how hot, cold, wet, or windy it might be!

Date:

Astronomy

Jan. 16, 2013 Rise Set
Actual Time 7:22 AM EST 5:04 PM EST
Civil Twilight 6:53 AM EST 5:33 PM EST
Nautical Twilight 6:19 AM EST 6:07 PM EST
Astronomical Twilight 5:47 AM EST 6:39 PM EST
Moon 9:58 AM EST (1/16) 10:53 PM EST (1/16)
Length of Visible Light 10h 40m
Length of Day
9h 41m
Waxing Crescent, 28% of the Moon is Illuminated
Jan 16
Waxing Crescent
Jan 18
First Quarter
Jan 26
Full
Feb 3
Last Quarter
Feb 10
New

Hourly Weather History & Observations

Time (EST) Temp. Windchill Dew Point Humidity Pressure Visibility Wind Dir Wind Speed Gust Speed Precip Events Conditions
12:15 AM 33.8 °F - 32.0 °F 93% 30.17 in 3.0 mi Calm Calm - 0.04 in Rain Rain
12:35 AM 32.0 °F 28.7 °F 32.0 °F 100% 30.15 in 3.0 mi ENE 3.5 mph - 0.10 in Rain Rain
1:15 AM 32.0 °F 27.5 °F 32.0 °F 100% 30.14 in 2.0 mi ENE 4.6 mph - 0.09 in Rain Heavy Rain
1:35 AM 32.0 °F 28.7 °F 32.0 °F 100% 30.15 in 2.5 mi NE 3.5 mph - 0.23 in Rain Heavy Rain
1:55 AM 32.0 °F 28.7 °F 32.0 °F 100% 30.14 in 2.0 mi ENE 3.5 mph - 0.39 in Rain Heavy Rain
2:15 AM 32.0 °F 28.7 °F 32.0 °F 100% 30.12 in 2.0 mi NE 3.5 mph - 0.13 in Rain Heavy Rain
2:35 AM 32.0 °F 27.5 °F 32.0 °F 100% 30.12 in 2.0 mi NE 4.6 mph - 0.27 in Rain Heavy Rain
2:55 AM 32.0 °F - 32.0 °F 100% 30.13 in 2.0 mi Calm Calm - 0.44 in Rain Heavy Rain
3:15 AM 32.0 °F 28.7 °F 32.0 °F 100% 30.12 in 2.0 mi ENE 3.5 mph - 0.10 in Rain Heavy Rain
3:35 AM 32.0 °F - 32.0 °F 100% 30.12 in 3.0 mi Calm Calm - 0.17 in Rain Rain
4:15 AM 32.0 °F 25.6 °F 32.0 °F 100% 30.08 in 3.0 mi East 6.9 mph - 0.01 in Rain Light Rain
4:35 AM 33.8 °F 25.3 °F 32.0 °F 93% 30.08 in 5.0 mi East 11.5 mph - 0.02 in Rain Light Rain
4:55 AM 33.8 °F 27.7 °F 32.0 °F 93% 30.06 in 3.0 mi East 6.9 mph - 0.02 in Rain Light Rain
5:15 AM 33.8 °F 27.0 °F 32.0 °F 93% 30.06 in 4.0 mi East 8.1 mph - N/A   Overcast
5:35 AM 32.0 °F 22.1 °F 32.0 °F 100% 30.04 in 5.0 mi East 13.8 mph 18.4 mph N/A Rain Light Rain
5:55 AM 32.0 °F 27.5 °F 32.0 °F 100% 30.04 in 3.0 mi ENE 4.6 mph - N/A   Overcast
6:15 AM 33.8 °F 29.6 °F 32.0 °F 93% 30.06 in 4.0 mi ENE 4.6 mph - N/A Rain Light Rain
6:35 AM 33.8 °F 30.8 °F 32.0 °F 93% 30.05 in 2.5 mi NE 3.5 mph - N/A Rain Light Rain
7:15 AM 33.8 °F - 32.0 °F 93% 30.04 in 4.0 mi Calm Calm - N/A Rain Light Rain
7:35 AM 33.8 °F - 32.0 °F 93% 30.03 in 4.0 mi Calm Calm - 0.01 in Rain Light Rain
7:55 AM 33.8 °F - 32.0 °F 93% 30.02 in 3.0 mi Calm Calm - 0.01 in Rain Light Rain
8:15 AM 33.8 °F 30.8 °F 32.0 °F 93% 30.01 in 4.0 mi ENE 3.5 mph - N/A   Overcast
8:35 AM 33.8 °F 29.6 °F 33.8 °F 100% 30.00 in 3.0 mi East 4.6 mph - N/A Rain Light Rain
8:55 AM 33.8 °F 30.8 °F 32.0 °F 93% 30.00 in 3.0 mi SE 3.5 mph - N/A   Overcast
9:15 AM 33.8 °F 29.6 °F 33.8 °F 100% 30.01 in 1.5 mi SSE 4.6 mph - N/A Rain Light Rain
9:35 AM 33.8 °F 30.8 °F 33.8 °F 100% 30.00 in 1.2 mi South 3.5 mph - N/A Rain Light Rain
9:55 AM 33.8 °F 29.6 °F 33.8 °F 100% 30.03 in 3.0 mi WNW 4.6 mph - N/A Rain Light Rain
10:15 AM 33.8 °F 28.6 °F 33.8 °F 100% 30.02 in 3.0 mi NW 5.8 mph - N/A Rain Light Rain
10:35 AM 33.8 °F 29.6 °F 33.8 °F 100% 30.01 in 3.0 mi West 4.6 mph - 0.01 in   Overcast
10:55 AM 33.8 °F - 33.8 °F 100% 29.97 in 4.0 mi Calm Calm - 0.01 in   Overcast
11:15 AM 33.8 °F 29.6 °F 33.8 °F 100% 29.98 in 2.0 mi NW 4.6 mph - N/A   Overcast
11:35 AM 33.8 °F - 33.8 °F 100% 29.98 in 3.0 mi Calm Calm - N/A Snow Light Snow
11:55 AM 33.8 °F - 33.8 °F 100% 29.94 in 1.8 mi Calm Calm - N/A   Overcast
12:15 PM 33.8 °F 30.8 °F 33.8 °F 100% 29.89 in 1.5 mi East 3.5 mph - N/A   Overcast
12:35 PM 33.8 °F 27.7 °F 33.8 °F 100% 29.83 in 0.2 mi SE 6.9 mph - N/A Fog Fog
12:55 PM 33.8 °F 27.7 °F 33.8 °F 100% 29.87 in 0.5 mi NNW 6.9 mph - N/A Snow Light Snow
1:15 PM 33.8 °F 30.8 °F 33.8 °F 100% 29.83 in 0.5 mi WSW 3.5 mph - N/A Snow Light Snow
1:35 PM 33.8 °F 24.8 °F 33.8 °F 100% 29.91 in 2.0 mi NW 12.7 mph 18.4 mph N/A   Overcast
1:55 PM 33.8 °F 29.6 °F 33.8 °F 100% 29.89 in 1.5 mi NNW 4.6 mph - N/A Snow Light Snow
2:15 PM 33.8 °F 27.7 °F 33.8 °F 100% 29.91 in 1.0 mi NNW 6.9 mph - N/A   Overcast
2:35 PM 33.8 °F 27.7 °F 33.8 °F 100% 29.91 in 0.5 mi NNW 6.9 mph - N/A Fog Fog
2:55 PM 33.8 °F 29.6 °F 33.8 °F 100% 29.90 in 0.5 mi NW 4.6 mph - N/A Snow Light Snow
3:15 PM 33.8 °F - 33.8 °F 100% 29.92 in 0.5 mi Calm Calm - N/A Fog Fog
3:35 PM 33.8 °F - 33.8 °F 100% 29.90 in 0.2 mi Calm Calm - N/A Fog Fog
3:55 PM 33.8 °F 29.6 °F 33.8 °F 100% 29.93 in 0.2 mi WSW 4.6 mph - N/A Snow Light Snow
4:15 PM 33.8 °F 30.8 °F 33.8 °F 100% 29.93 in 0.2 mi WNW 3.5 mph - N/A Fog Fog
4:35 PM 35.6 °F - 35.6 °F 100% 29.93 in 0.5 mi Calm Calm - N/A Fog Fog
4:55 PM 35.6 °F 29.9 °F 35.6 °F 100% 29.94 in 1.0 mi NW 6.9 mph - N/A   Overcast
5:15 PM 35.6 °F 31.7 °F 35.6 °F 100% 29.94 in 1.8 mi West 4.6 mph - N/A   Overcast
5:35 PM 35.6 °F - 35.6 °F 100% 29.94 in 1.8 mi Calm Calm - N/A   Overcast
5:55 PM 35.6 °F 32.8 °F 35.6 °F 100% 29.94 in 2.0 mi West 3.5 mph - N/A   Overcast
6:15 PM 35.6 °F 32.8 °F 35.6 °F 100% 29.95 in 2.0 mi WSW 3.5 mph - N/A   Overcast
6:35 PM 35.6 °F 31.7 °F 35.6 °F 100% 29.95 in 2.5 mi West 4.6 mph - N/A   Overcast
6:55 PM 35.6 °F 32.8 °F 35.6 °F 100% 29.95 in 3.0 mi West 3.5 mph - N/A   Overcast
7:15 PM 35.6 °F 31.7 °F 35.6 °F 100% 29.95 in 2.5 mi West 4.6 mph - N/A   Overcast
7:35 PM 35.6 °F 31.7 °F 35.6 °F 100% 29.95 in 2.5 mi West 4.6 mph - N/A   Overcast
7:55 PM 35.6 °F 30.7 °F 35.6 °F 100% 29.96 in 2.5 mi West 5.8 mph - N/A   Overcast
8:15 PM 35.6 °F 29.2 °F 35.6 °F 100% 29.96 in 3.0 mi WNW 8.1 mph - N/A   Overcast
8:35 PM 35.6 °F 29.9 °F 35.6 °F 100% 29.96 in 3.0 mi West 6.9 mph - N/A   Overcast
8:55 PM 35.6 °F 30.7 °F 35.6 °F 100% 29.96 in 3.0 mi West 5.8 mph - N/A   Overcast
9:15 PM 35.6 °F 31.7 °F 35.6 °F 100% 29.96 in 3.0 mi WSW 4.6 mph - N/A   Overcast
9:55 PM 37.4 °F 32.1 °F 35.6 °F 93% 29.97 in 5.0 mi West 6.9 mph - N/A   Mostly Cloudy
10:15 PM 35.6 °F 30.7 °F 35.6 °F 100% 29.95 in 4.0 mi West 5.8 mph - N/A   Partly Cloudy
10:35 PM 37.4 °F 31.4 °F 35.6 °F 93% 29.97 in 4.0 mi West 8.1 mph - N/A   Scattered Clouds
10:55 PM 37.4 °F 31.4 °F 35.6 °F 93% 29.96 in 5.0 mi West 8.1 mph - N/A   Scattered Clouds
11:15 PM 37.4 °F 30.3 °F 35.6 °F 93% 29.95 in 7.0 mi WNW 10.4 mph - N/A   Clear
11:35 PM 37.4 °F 29.8 °F 35.6 °F 93% 29.95 in 10.0 mi WNW 11.5 mph - N/A   Clear
11:55 PM 37.4 °F 30.3 °F 35.6 °F 93% 29.96 in 10.0 mi West 10.4 mph - N/A   Clear